Location: Observatoire de Paris
(48.8363°N, 2.3365°E)
Time: 18:13:18
(UTC+01:00)

Vanguard 1 - All Passes

Search period start: 28 July 2021 00:00
Search period end: 07 August 2021 00:00
Orbit: 651 x 3832 km, 34.2° (Epoch: 27 July)

Date Brightness Start Highest point End Pass type
(mag) Time Alt. Az. Time Alt. Az. Time Alt. Az.
28 Jul - 12:49:44 10° SSW 12:54:44 24° SSE 13:02:11 10° ESE daylight
28 Jul - 15:07:23 10° WSW 15:14:37 34° S 15:26:42 10° ESE daylight
28 Jul - 17:27:09 10° WSW 17:35:59 26° SSW 17:49:18 10° SSE daylight
28 Jul - 19:54:06 10° SW 19:58:01 11° SW 20:02:21 10° SSW daylight
29 Jul - 13:10:00 10° SW 13:15:16 27° SSE 13:23:21 10° ESE daylight
29 Jul - 15:28:07 10° WSW 15:35:24 32° S 15:47:21 10° SE daylight
29 Jul - 17:48:37 10° WSW 17:56:52 22° SSW 18:08:33 10° SSE daylight
30 Jul - 11:14:44 10° S 11:16:59 12° SSE 11:19:35 10° SE daylight
30 Jul - 13:30:24 10° SW 13:35:52 28° S 13:44:24 10° ESE daylight
30 Jul - 15:48:59 10° WSW 15:56:13 29° S 16:07:45 10° SE daylight
30 Jul - 18:10:41 10° WSW 18:17:44 17° SSW 18:26:59 10° S daylight
31 Jul - 11:34:07 10° S 11:37:22 16° SSE 11:41:25 10° ESE daylight
31 Jul - 13:50:57 10° SW 13:56:31 29° S 14:05:17 10° ESE daylight
31 Jul - 16:10:02 10° WSW 16:17:04 25° SSW 16:27:48 10° SSE daylight
31 Jul - 18:34:16 10° SW 18:38:36 12° SSW 18:43:36 10° SSW daylight
01 Aug - 11:54:04 10° SSW 11:57:49 19° SSE 12:02:46 10° ESE daylight
01 Aug - 14:11:36 10° WSW 14:17:14 28° S 14:26:01 10° SE daylight
01 Aug - 16:31:20 10° WSW 16:37:55 21° SSW 16:47:24 10° SSE daylight
02 Aug - 12:14:19 10° SW 12:18:20 21° SSE 12:23:52 10° ESE daylight
02 Aug - 14:32:24 10° WSW 14:37:59 25° S 14:46:32 10° SE daylight
02 Aug - 16:53:08 10° WSW 16:58:47 16° SSW 17:06:17 10° S daylight
03 Aug - 12:34:44 10° SW 12:38:56 22° S 12:44:47 10° ESE daylight
03 Aug - 14:53:20 10° WSW 14:58:47 22° S 15:06:45 10° SE daylight
03 Aug - 17:16:15 10° SW 17:19:39 12° SSW 17:23:37 10° S daylight
04 Aug - 10:38:35 10° S 10:40:35 12° SSE 10:42:47 10° SE daylight
04 Aug - 12:55:18 10° SW 12:59:35 22° S 13:05:34 10° SE daylight
04 Aug - 15:14:33 10° SW 15:19:35 19° SSW 15:26:34 10° SSE daylight
05 Aug - 10:58:24 10° SSW 11:01:05 15° SSE 11:04:12 10° SE daylight
05 Aug - 13:16:02 10° SW 13:20:16 21° S 13:26:08 10° SE daylight
05 Aug - 15:36:14 10° SW 15:40:24 15° SSW 15:45:44 10° S daylight
06 Aug - 11:18:37 10° SSW 11:21:38 17° SSE 11:25:15 10° SE daylight
06 Aug - 13:36:55 10° SW 13:40:59 19° S 13:46:27 10° SE daylight
06 Aug - 15:59:34 10° SSW 16:01:14 11° SSW 16:03:02 10° SSW daylight
